| time (UTC) | temp F | wind direction | speed knots | gust knots | rain 1hr in | rain 24hr in | rain mn in | humidity % | barometer mb |
| 20260507111644 | 41 | 92 | 0.0 | 0.9 | 0.00 | 0.00 | 0.00 | 47 | 1020.4 |
| 20260507110137 | 42 | 86 | 0.9 | 1.7 | 0.00 | 0.00 | 0.00 | 45 | 1020.4 |
| 20260507104628 | 42 | 4 | 0.0 | 2.6 | 0.00 | 0.00 | 0.00 | 45 | 1020.3 |
| 20260507103141 | 42 | 64 | 0.9 | 1.7 | 0.00 | 0.00 | 0.00 | 47 | 1020.0 |
| 20260507101630 | 42 | 344 | 0.0 | 1.7 | 0.00 | 0.00 | 0.00 | 46 | 1019.9 |
| 20260507100144 | 43 | 305 | 0.0 | 2.6 | 0.00 | 0.00 | 0.00 | 44 | 1019.8 |
| 20260507094632 | 44 | 15 | 0.0 | 2.6 | 0.00 | 0.00 | 0.00 | 44 | 1019.8 |
| 20260507093121 | 45 | 76 | 0.0 | 1.7 | 0.00 | 0.00 | 0.00 | 43 | 1019.7 |
| 20260507091635 | 45 | 279 | 0.0 | 3.5 | 0.00 | 0.00 | 0.00 | 44 | 1019.6 |
| 20260507090144 | 46 | 271 | 1.7 | 3.5 | 0.00 | 0.00 | 0.00 | 43 | 1019.4 |
| 20260507084635 | 45 | 215 | 0.9 | 1.7 | 0.00 | 0.00 | 0.00 | 42 | 1019.2 |
| 20260507083125 | 46 | 156 | 0.9 | 0.9 | 0.00 | 0.00 | 0.00 | 39 | 1018.8 |
| 20260507081633 | 46 | 270 | 0.0 | 0.9 | 0.00 | 0.00 | 0.00 | 38 | 1018.7 |
| 20260507080125 | 48 | 270 | 0.0 | 0.9 | 0.00 | 0.00 | 0.00 | 35 | 1018.8 |
| 20260507074635 | 49 | 220 | 1.7 | 5.2 | 0.00 | 0.00 | 0.00 | 30 | 1018.9 |
| 20260507073126 | 53 | 35 | 0.0 | 0.9 | 0.00 | 0.00 | 0.00 | 23 | 1018.7 |
| 20260507071636 | 54 | 64 | 0.0 | 1.7 | 0.00 | 0.00 | 0.00 | 24 | 1018.8 |
| 20260507070130 | 53 | 49 | 1.7 | 2.6 | 0.00 | 0.00 | 0.00 | 25 | 1018.9 |
| 20260507064639 | 53 | 69 | 0.9 | 1.7 | 0.00 | 0.00 | 0.00 | 25 | 1019.0 |
| 20260507063150 | 54 | 59 | 0.9 | 1.7 | 0.00 | 0.00 | 0.00 | 24 | 1019.1 |
| 20260507061622 | 52 | 354 | 0.0 | 0.9 | 0.00 | 0.00 | 0.00 | 25 | 1019.4 |
| 20260507060152 | 53 | 253 | 0.0 | 1.7 | 0.00 | 0.00 | 0.00 | 23 | 1019.3 |
| 20260507054639 | 55 | 100 | 0.9 | 1.7 | 0.00 | 0.00 | 0.00 | 21 | 1019.2 |
| 20260507053131 | 55 | 322 | 0.0 | 0.9 | 0.00 | 0.00 | 0.00 | 21 | 1019.1 |
| 20260507051640 | 58 | 71 | 0.0 | 0.9 | 0.00 | 0.00 | 0.00 | 19 | 1019.1 |
| 20260507050133 | 60 | 97 | 0.0 | 2.6 | 0.00 | 0.00 | 0.00 | 17 | 1019.0 |
| 20260507044622 | 60 | 118 | 3.5 | 6.1 | 0.00 | 0.00 | 0.00 | 16 | 1018.9 |
| 20260507043131 | 60 | 98 | 0.0 | 1.7 | 0.00 | 0.00 | 0.00 | 17 | 1018.7 |
| 20260507041643 | 61 | 239 | 0.0 | 1.7 | 0.00 | 0.00 | 0.00 | 16 | 1018.6 |
| 20260507040134 | 61 | 125 | 3.5 | 5.2 | 0.00 | 0.00 | 0.00 | 16 | 1018.4 |
| 20260507034625 | 58 | 123 | 1.7 | 2.6 | 0.00 | 0.00 | 0.00 | 20 | 1018.2 |
| 20260507033134 | 59 | 117 | 0.9 | 0.9 | 0.00 | 0.00 | 0.00 | 19 | 1018.0 |
| 20260507031623 | 60 | 102 | 0.9 | 0.9 | 0.00 | 0.00 | 0.00 | 19 | 1017.7 |
| 20260507030137 | 61 | 140 | 0.9 | 1.7 | 0.00 | 0.00 | 0.00 | 17 | 1017.4 |
| 20260507024626 | 62 | 118 | 0.9 | 1.7 | 0.00 | 0.00 | 0.00 | 17 | 1017.1 |
| 20260507023140 | 63 | 127 | 0.9 | 1.7 | 0.00 | 0.00 | 0.00 | 16 | 1016.9 |
| 20260507021629 | 65 | 152 | 0.9 | 1.7 | 0.00 | 0.00 | 0.00 | 15 | 1016.8 |
| 20260507020121 | 67 | 161 | 1.7 | 3.5 | 0.00 | 0.00 | 0.00 | 13 | 1016.6 |
| 20260507014629 | 70 | 222 | 1.7 | 2.6 | 0.00 | 0.00 | 0.00 | 11 | 1016.4 |
| 20260507013137 | 73 | 204 | 1.7 | 5.2 | 0.00 | 0.00 | 0.00 | 9 | 1015.9 |
| 20260507011631 | 74 | 225 | 1.7 | 5.2 | 0.00 | 0.00 | 0.00 | 9 | 1016.2 |
| 20260507010121 | 75 | 262 | 0.9 | 2.6 | 0.00 | 0.00 | 0.00 | 9 | 1016.1 |
| 20260507004634 | 75 | 289 | 2.6 | 5.2 | 0.00 | 0.00 | 0.00 | 9 | 1015.9 |
| 20260507003123 | 75 | 305 | 4.3 | 8.7 | 0.00 | 0.00 | 0.00 | 9 | 1015.6 |
| 20260507001634 | 76 | 249 | 5.2 | 8.7 | 0.00 | 0.00 | 0.00 | 9 | 1015.6 |
| 20260507000131 | 76 | 267 | 6.1 | 11.3 | 0.00 | 0.00 | 0.00 | 9 | 1015.3 |
| 20260506234621 | 76 | 287 | 5.2 | 8.7 | 0.00 | 0.00 | 0.00 | 9 | 1015.3 |
| 20260506233135 | 76 | 296 | 4.3 | 11.3 | 0.00 | 0.00 | 0.00 | 9 | 1015.2 |
| 20260506231624 | 76 | 284 | 6.1 | 12.2 | 0.00 | 0.00 | 0.00 | 9 | 1015.2 |
| 20260506230139 | 76 | 248 | 6.1 | 9.6 | 0.00 | 0.00 | 0.00 | 9 | 1015.3 |
| 20260506224630 | 75 | 222 | 4.3 | 10.4 | 0.00 | 0.00 | 0.00 | 10 | 1015.3 |
| 20260506223142 | 75 | 258 | 6.1 | 14.8 | 0.00 | 0.00 | 0.00 | 11 | 1015.4 |
| 20260506221634 | 74 | 285 | 2.6 | 8.7 | 0.00 | 0.00 | 0.00 | 11 | 1015.4 |
| 20260506220143 | 75 | 285 | 3.5 | 8.7 | 0.00 | 0.00 | 0.00 | 12 | 1015.7 |
| 20260506214633 | 74 | 240 | 6.1 | 13.9 | 0.00 | 0.00 | 0.00 | 11 | 1015.7 |
| 20260506213128 | 74 | 214 | 6.1 | 11.3 | 0.00 | 0.00 | 0.00 | 12 | 1016.1 |
| 20260506211702 | 73 | 35 | 1.7 | 9.6 | 0.00 | 0.00 | 0.00 | 13 | 1016.2 |
| 20260506210136 | 75 | 30 | 1.7 | 6.1 | 0.00 | 0.00 | 0.00 | 12 | 1016.4 |
| 20260506204628 | 74 | 294 | 0.9 | 7.8 | 0.00 | 0.00 | 0.00 | 12 | 1016.5 |
| 20260506203123 | 73 | 272 | 5.2 | 9.6 | 0.00 | 0.00 | 0.00 | 12 | 1016.7 |
| 20260506201636 | 73 | 300 | 4.3 | 13.0 | 0.00 | 0.00 | 0.00 | 13 | 1016.8 |
| 20260506200130 | 73 | 251 | 4.3 | 11.3 | 0.00 | 0.00 | 0.00 | 10 | 1016.9 |
| 20260506194643 | 72 | 272 | 0.9 | 7.0 | 0.00 | 0.00 | 0.00 | 15 | 1016.8 |
| 20260506193131 | 72 | 206 | 5.2 | 8.7 | 0.00 | 0.00 | 0.00 | 15 | 1017.0 |
| 20260506191629 | 72 | 298 | 4.3 | 11.3 | 0.00 | 0.00 | 0.00 | 14 | 1017.1 |
| 20260506190121 | 71 | 253 | 5.2 | 11.3 | 0.00 | 0.00 | 0.00 | 14 | 1017.2 |
| 20260506184634 | 70 | 247 | 3.5 | 9.6 | 0.00 | 0.00 | 0.00 | 16 | 1017.3 |
| 20260506183126 | 70 | 346 | 7.0 | 13.9 | 0.00 | 0.00 | 0.00 | 15 | 1017.5 |
| 20260506181636 | 69 | 216 | 3.5 | 9.6 | 0.00 | 0.00 | 0.00 | 14 | 1017.7 |
| 20260506180130 | 69 | 293 | 3.5 | 9.6 | 0.00 | 0.00 | 0.00 | 18 | 1017.9 |
| 20260506174620 | 69 | 259 | 5.2 | 12.2 | 0.00 | 0.00 | 0.00 | 17 | 1017.9 |
| 20260506173155 | 69 | 332 | 6.1 | 10.4 | 0.00 | 0.00 | 0.00 | 17 | 1018.0 |
| 20260506171622 | 68 | 267 | 6.1 | 10.4 | 0.00 | 0.00 | 0.00 | 18 | 1018.1 |
| 20260506170132 | 68 | 269 | 5.2 | 8.7 | 0.00 | 0.00 | 0.00 | 21 | 1018.2 |
| 20260506164624 | 67 | 277 | 7.0 | 13.9 | 0.00 | 0.00 | 0.00 | 22 | 1018.2 |
| 20260506163134 | 67 | 106 | 3.5 | 7.0 | 0.00 | 0.00 | 0.00 | 23 | 1018.3 |
| 20260506161646 | 66 | 221 | 1.7 | 8.7 | 0.00 | 0.00 | 0.00 | 26 | 1018.2 |
| 20260506160136 | 66 | 223 | 3.5 | 14.8 | 0.00 | 0.00 | 0.00 | 27 | 1018.2 |
| 20260506154627 | 65 | 224 | 4.3 | 8.7 | 0.00 | 0.00 | 0.00 | 28 | 1018.1 |
| 20260506153137 | 64 | 110 | 1.7 | 4.3 | 0.00 | 0.00 | 0.00 | 28 | 1018.2 |
| 20260506151627 | 64 | 260 | 1.7 | 7.0 | 0.00 | 0.00 | 0.00 | 29 | 1018.3 |
| 20260506150141 | 64 | 296 | 2.6 | 6.1 | 0.00 | 0.00 | 0.00 | 28 | 1018.3 |
| 20260506144650 | 64 | 322 | 0.9 | 6.1 | 0.00 | 0.00 | 0.00 | 30 | 1018.2 |
| 20260506143124 | 64 | 311 | 1.7 | 4.3 | 0.00 | 0.00 | 0.00 | 30 | 1018.3 |
| 20260506141633 | 63 | 248 | 1.7 | 3.5 | 0.00 | 0.00 | 0.00 | 30 | 1018.3 |
| 20260506140123 | 63 | 286 | 1.7 | 5.2 | 0.00 | 0.00 | 0.00 | 30 | 1018.1 |
| 20260506134638 | 62 | 312 | 0.9 | 3.5 | 0.00 | 0.00 | 0.00 | 33 | 1018.2 |
| 20260506133130 | 61 | 239 | 0.0 | 0.9 | 0.00 | 0.00 | 0.00 | 38 | 1018.1 |
| 20260506131644 | 55 | 118 | 0.0 | 0.9 | 0.00 | 0.00 | 0.00 | 45 | 1018.0 |
| 20260506130135 | 52 | 263 | 0.0 | 0.9 | 0.00 | 0.00 | 0.00 | 48 | 1017.9 |
| 20260506124626 | 51 | 32 | 0.0 | 1.7 | 0.00 | 0.00 | 0.00 | 46 | 1017.6 |
| 20260506123144 | 54 | 108 | 0.0 | 1.7 | 0.00 | 0.00 | 0.00 | 40 | 1017.5 |
| 20260506121657 | 54 | 291 | 0.0 | 0.9 | 0.00 | 0.00 | 0.00 | 41 | 1017.2 |
| 20260506120134 | 54 | 135 | 0.9 | 1.7 | 0.00 | 0.00 | 0.00 | 40 | 1016.9 |
| 20260506114627 | 55 | 286 | 0.9 | 1.7 | 0.00 | 0.00 | 0.00 | 40 | 1016.8 |
| 20260506113140 | 56 | 294 | 0.9 | 3.5 | 0.00 | 0.00 | 0.00 | 37 | 1016.7 |